User: anonymous   Login
Location: Unspecified
(0.0000°N, 0.0000°E)
Time: 05:28:31
(UTC+02:00)
Language:

H-2A R/B - Orbit

View from above orbital plane
View from above orbital plane
View from above satellite
View from above satellite

Ground track
Ground track

The orbit data is extracted from the following two-line orbital elements,

1 26899U 01038B   17174.60059972 +.00001398 +00000-0 +44288-3 0  9994
2 26899 028.3524 062.0953 7122130 193.1851 127.1898 02.48051620136643
Epoch (UTC): 23 June 2017 14:24:51
Eccentricity: 0.7122130
inclination: 28.3524°
perigee height: 256 km
apogee height: 33091 km
right ascension of ascending node: 62.0953°
argument of perigee: 193.1851°
revolutions per day: 2.48051620
mean anomaly at epoch: 127.1898°
orbit number at epoch: 13664

The dashed part of the orbit path shows where the satellite is in the earth's shadow,  

DLR